Chicago DuPage, IL

8:46 AM CDT on September 20, 2017 (GMT -0500)
Du Page

Weather History for KDPA - November, 2013

Change the Weather History Date:

Wednesday, November 13, 2013

  Actual Average Record
Temperature  
Mean Temperature 28 °F 42 °F  
Max Temperature 40 °F 51 °F 70 °F (1999)
Min Temperature 16 °F 33 °F 16 °F (2013)
Degree Days  
Heating Degree Days 37 23  
Month to date heating degree days 324 268  
Since 1 July heating degree days 887 779  
Cooling Degree Days 0 0  
Month to date cooling degree days 0 0  
Year to date cooling degree days 745 814  
Moisture  
Dew Point 17 °F    
Average Humidity 65    
Maximum Humidity 84    
Minimum Humidity 43    
Precipitation  
Precipitation 0.00 in 0.11 in 0.18 in (2010)
Month to date precipitation 0.94 1.38  
Year to date precipitation 32.91 33.49  
Sea Level Pressure  
Sea Level Pressure 30.42 in    
Wind  
Wind Speed 12 mph (SSW)    
Max Wind Speed 24 mph    
Max Gust Speed 32 mph    
Visibility 10 miles    
Events      
T = Trace of Precipitation, MM = Missing Value Source: NWS Daily Summary

Daily Weather History Graph

Daily Weather History Graph

Search for Another Location

Airport or City:

Trip Planner

Search our weather history database for the weather conditions in past years. The results will help you decide how hot, cold, wet, or windy it might be!

Date:

Astronomy

Nov. 13, 2013 Rise Set
Actual Time 6:40 AM CST 4:33 PM CST
Civil Twilight 6:10 AM CST 5:03 PM CST
Nautical Twilight 5:37 AM CST 5:37 PM CST
Astronomical Twilight 5:04 AM CST 6:09 PM CST
Moon 2:24 PM CST (11/13) 2:29 AM CST (11/13)
Length of Visible Light 10h 52m
Length of Day
9h 53m
Waxing Gibbous, 85% of the Moon is Illuminated
Nov 13
Waxing Gibbous
Nov 17
Full
Nov 25
Last Quarter
Dec 2
New
Dec 9
First Quarter

Hourly Weather History & Observations

Time (CST) Temp. Windchill Dew Point Humidity Pressure Visibility Wind Dir Wind Speed Gust Speed Precip Events Conditions
12:52 AM 19.0 °F 11.1 °F 14.0 °F 81% 30.61 in 10.0 mi West 5.8 mph - N/A   Clear
1:52 AM 17.1 °F 11.7 °F 12.9 °F 84% 30.60 in 10.0 mi SSW 3.5 mph - N/A   Clear
2:52 AM 17.1 °F 10.0 °F 12.9 °F 84% 30.61 in 10.0 mi WSW 4.6 mph - N/A   Clear
3:52 AM 18.0 °F 9.8 °F 12.9 °F 81% 30.59 in 10.0 mi WSW 5.8 mph - N/A   Clear
4:52 AM 17.1 °F 7.6 °F 12.9 °F 84% 30.58 in 10.0 mi SSW 6.9 mph - N/A   Clear
5:52 AM 17.1 °F 8.7 °F 12.9 °F 84% 30.58 in 10.0 mi SW 5.8 mph - N/A   Clear
6:52 AM 18.0 °F 7.7 °F 12.9 °F 81% 30.57 in 10.0 mi SW 8.1 mph - N/A   Clear
7:52 AM 21.0 °F 9.9 °F 16.0 °F 81% 30.56 in 10.0 mi SW 10.4 mph - N/A   Clear
8:52 AM 26.1 °F 14.5 °F 17.1 °F 69% 30.55 in 10.0 mi SW 13.8 mph - N/A   Clear
9:52 AM 30.0 °F 18.3 °F 19.0 °F 64% 30.51 in 10.0 mi SW 17.3 mph 20.7 mph N/A   Clear
10:52 AM 33.1 °F 21.5 °F 18.0 °F 54% 30.48 in 10.0 mi SW 19.6 mph 29.9 mph N/A   Clear
11:52 AM 36.0 °F 26.0 °F 18.0 °F 48% 30.43 in 10.0 mi SW 17.3 mph - N/A   Clear
12:52 PM 37.9 °F - 18.0 °F 45% 30.40 in - North - - N/A   Unknown
1:52 PM 39.0 °F 30.6 °F 18.0 °F 43% 30.37 in 10.0 mi SSW 15.0 mph 25.3 mph N/A   Clear
2:52 PM 39.0 °F 29.9 °F 18.0 °F 43% 30.33 in 10.0 mi South 17.3 mph 26.5 mph N/A   Clear
3:52 PM 37.9 °F 28.5 °F 17.1 °F 43% 30.32 in 10.0 mi SSW 17.3 mph 24.2 mph N/A   Clear
4:52 PM 35.1 °F 25.2 °F 19.9 °F 54% 30.30 in 10.0 mi SSW 16.1 mph - N/A   Clear
5:52 PM 34.0 °F 24.2 °F 19.9 °F 56% 30.28 in 10.0 mi SSW 15.0 mph 24.2 mph N/A   Clear
6:52 PM 34.0 °F 23.8 °F 21.0 °F 59% 30.26 in 10.0 mi SSW 16.1 mph - N/A   Clear
7:52 PM 33.1 °F 23.0 °F 21.9 °F 64% 30.25 in 10.0 mi SSW 15.0 mph 23.0 mph N/A   Clear
8:52 PM 32.0 °F 22.1 °F 21.0 °F 64% 30.23 in 10.0 mi SSW 13.8 mph - N/A   Clear
9:52 PM 32.0 °F 22.1 °F 21.0 °F 64% 30.21 in 10.0 mi SSW 13.8 mph 23.0 mph N/A   Clear
10:52 PM 30.9 °F 20.7 °F 21.0 °F 67% 30.19 in 10.0 mi SSW 13.8 mph - N/A   Clear
11:52 PM 30.9 °F 20.7 °F 21.0 °F 67% 30.18 in 10.0 mi SSW 13.8 mph - N/A   Clear